Find Starlink 4569

NORAD ID: 53687 Int'l Des: 2022-105 Owner: SPXS Country: US Constellation: starlink operational
LEOCIRCULARRETROGRADESSO

实时位置

正在加载3D地球...

关于 Starlink 4569

正在加载描述...

即将过境

Passes for default location (London). Set your location on the main map for personalized predictions.

高度历史

Loading altitude history...

两行轨道根数

1 53687U 22105AR 26132.23686262 -.00000706 00000-0 -44831-4 0 9997
2 53687 97.5049 13.6423 0002017 92.8026 267.3432 15.05651894202860
Epoch: May 12, 2026 • Age: 26 hours

当前状态

高度 554.7 km
速度 7.59 km/s
星下点 41.77°N, 146.89°W
发射日期 Aug 31, 2022
运行时间 3.6 years
类型 internet

技术详情

分类 Payload
质量 300.00 kg
干质量 290.00 kg
总质量 300.00 kg
长度 0.20 m
直径 2.80 m
跨度 9.00 m
形状 Box + pan
制造商 SPXS
平台类型 Starlink
阶段状态 In Orbit
所有者/国家 SPXS/US

Most Searched